Location: Cluj-Napoca
(46.7712°N, 23.6236°E)
Time: 07:04:52
(UTC+02:00)

ISS - Pass Details

Date: 27 January 2021
Orbit: 417 x 422 km, 51.6° (Epoch: 08 March)

Event Time Altitude Azimuth Distance (km) Brightness Sun altitude
Rises 19:01:22 0° 283° (WNW) 2,373 1.4 -17.1°
Reaches altitude 10° 19:03:35 10° 292° (WNW) 1,510 -0.1 -17.5°
Maximum altitude 19:06:43 34° 360° (N) 719 -2.7 -18.0°
Enters shadow 19:07:08 33° 17° (NNE) 739 -2.8 -18.0°
